Location: Newark
(48.9320°N, 2.2664°E)
Time: 00:19:28
(UTC+00:00)

Vanguard 1 Rocket - Pass Details

Date: 19 February 2020
Orbit: 650 x 4226 km, 34.3° (Epoch: 01 April)

Event Time Altitude Azimuth Distance (km) Brightness Sun altitude
Rises 04:28:40 0° 235° (SW) 3,506 - -24.3°
Reaches altitude 10° 04:32:38 10° 210° (SSW) 2,231 - -23.7°
Exits shadow 04:34:54 14° 181° (S) 1,864 8.9 -23.3°
Maximum altitude 04:35:05 14° 178° (S) 1,856 8.9 -23.3°
Drops below altitude 10° 04:37:22 10° 146° (SSE) 2,046 9.5 -22.9°
Sets 04:40:41 0° 119° (ESE) 2,999 10.9 -22.4°
